WUK7YB LRCK-EGGW

Flight info

Callsign WUK7YB
Flight time N/A
Altitude 36000
Route DIRAL DCT IDARU DCT PELUR DCT SIB DCT BUXLE DCT BUDOP DCT MAREG DCT DITIS DCT OKG DCT VELIS DCT SWALM DCT TIVUN DCT DIBIR DCT BREDA DCT NOGRO M40 RINIS
Aircraft A21N/M-SDE3FGHIRWY/LB1

Departure

Time 2026-05-06 13:46
Airport Mihail Kogălniceanu International Airport (LRCK)

Arrival

Time N/A
Airport London Luton Airport (EGGW)
Time Latitude Longitude Altitude Speed Heading
2026-05-06 13:32 44.34885 28.48370 319 ft 0 kts 44°
2026-05-06 13:39 44.34885 28.48371 319 ft 0 kts 44°
2026-05-06 13:39 44.34896 28.48384 319 ft 4 kts 37°
2026-05-06 13:40 44.34935 28.48425 319 ft 10 kts 36°
2026-05-06 13:40 44.35021 28.48452 317 ft 15 kts 15°
2026-05-06 13:40 44.35100 28.48548 316 ft 15 kts 48°
2026-05-06 13:40 44.35177 28.48668 313 ft 17 kts 40°
2026-05-06 13:41 44.35289 28.48718 313 ft 17 kts
2026-05-06 13:41 44.35412 28.48734 313 ft 18 kts
2026-05-06 13:41 44.35549 28.48755 314 ft 20 kts
2026-05-06 13:41 44.35712 28.48779 316 ft 26 kts
2026-05-06 13:42 44.35911 28.48805 317 ft 30 kts
2026-05-06 13:42 44.36124 28.48836 319 ft 29 kts
2026-05-06 13:42 44.36319 28.48863 322 ft 26 kts
2026-05-06 13:42 44.36501 28.48887 322 ft 25 kts
2026-05-06 13:43 44.36665 28.48904 326 ft 22 kts
2026-05-06 13:43 44.36819 28.48928 327 ft 21 kts
2026-05-06 13:43 44.36966 28.48952 329 ft 21 kts
2026-05-06 13:43 44.37117 28.48978 331 ft 21 kts
2026-05-06 13:44 44.37266 28.48993 334 ft 21 kts
2026-05-06 13:44 44.37409 28.49007 337 ft 20 kts
2026-05-06 13:44 44.37550 28.49027 339 ft 20 kts
2026-05-06 13:44 44.37684 28.49038 342 ft 15 kts 340°
2026-05-06 13:45 44.37758 28.49026 342 ft 6 kts 28°
2026-05-06 13:45 44.37748 28.49055 342 ft 0 kts 187°
2026-05-06 13:45 44.37642 28.49041 341 ft 48 kts 184°
2026-05-06 13:46 44.37068 28.48964 330 ft 115 kts 184°
2026-05-06 13:46 44.36078 28.48829 328 ft 167 kts 184°
2026-05-06 13:46 44.34907 28.48669 815 ft 172 kts 183°
2026-05-06 13:46 44.33711 28.48510 1453 ft 175 kts 182°
2026-05-06 13:47 44.32507 28.48355 2094 ft 177 kts 182°
2026-05-06 13:47 44.31242 28.48194 2505 ft 190 kts 182°
2026-05-06 13:47 44.29886 28.48018 2898 ft 203 kts 182°
2026-05-06 13:47 44.28425 28.47824 3247 ft 219 kts 185°
2026-05-06 13:48 44.26951 28.47080 3453 ft 245 kts 216°
2026-05-06 13:48 44.25896 28.45099 3808 ft 265 kts 251°
2026-05-06 13:48 44.25825 28.42545 4332 ft 273 kts 287°
2026-05-06 13:48 44.26800 28.40379 5046 ft 269 kts 322°
2026-05-06 13:49 44.28408 28.39138 5856 ft 264 kts 337°
2026-05-06 13:49 44.30050 28.37980 6654 ft 266 kts 332°
2026-05-06 13:49 44.31443 28.36288 7348 ft 274 kts 307°
2026-05-06 13:49 44.32264 28.33874 8079 ft 280 kts 292°
2026-05-06 13:50 44.32855 28.31269 8760 ft 283 kts 290°
2026-05-06 13:50 44.33425 28.28624 9437 ft 286 kts 290°
2026-05-06 13:50 44.34014 28.26004 10076 ft 288 kts 291°
2026-05-06 13:50 44.34652 28.23287 10599 ft 296 kts 292°
2026-05-06 13:51 44.35321 28.20506 10901 ft 311 kts 292°
2026-05-06 13:51 44.36041 28.17541 11189 ft 327 kts 292°
2026-05-06 13:51 44.36791 28.14472 11452 ft 341 kts 292°
2026-05-06 13:51 44.37576 28.11277 11747 ft 353 kts 292°
2026-05-06 13:52 44.38374 28.08021 12259 ft 358 kts 292°
2026-05-06 13:52 44.39179 28.04720 12855 ft 360 kts 292°
2026-05-06 13:52 44.39983 28.01417 13406 ft 363 kts 292°
2026-05-06 13:52 44.40803 27.98048 13923 ft 367 kts 292°
2026-05-06 13:53 44.41629 27.94654 14453 ft 370 kts 292°
2026-05-06 13:53 44.42436 27.91332 14956 ft 373 kts 292°
2026-05-06 13:53 44.43271 27.87886 15470 ft 376 kts 292°
2026-05-06 13:53 44.44120 27.84382 15961 ft 379 kts 292°
2026-05-06 13:54 44.44955 27.80929 16463 ft 382 kts 292°
2026-05-06 13:54 44.45811 27.77383 16929 ft 384 kts 292°
2026-05-06 13:54 44.46674 27.73801 17402 ft 387 kts 292°
2026-05-06 13:54 44.47528 27.70252 17840 ft 390 kts 292°
2026-05-06 13:55 44.48402 27.66617 18274 ft 393 kts 292°
2026-05-06 13:55 44.49266 27.63017 18710 ft 396 kts 292°
2026-05-06 13:55 44.50148 27.59331 19172 ft 398 kts 292°
2026-05-06 13:55 44.51020 27.55683 19607 ft 399 kts 292°
2026-05-06 13:56 44.51891 27.51944 20045 ft 401 kts 291°
2026-05-06 13:56 44.52738 27.48232 20461 ft 403 kts 291°
2026-05-06 13:56 44.53584 27.44503 20860 ft 405 kts 291°
2026-05-06 13:56 44.54442 27.40718 21271 ft 407 kts 291°
2026-05-06 13:57 44.55304 27.36918 21676 ft 408 kts 291°
2026-05-06 13:57 44.56160 27.33141 22055 ft 410 kts 290°
2026-05-06 13:57 44.57023 27.29326 22410 ft 412 kts 290°
2026-05-06 13:57 44.57893 27.25471 22781 ft 414 kts 290°
2026-05-06 13:58 44.58758 27.21634 23152 ft 415 kts 290°
2026-05-06 13:58 44.59614 27.17830 23511 ft 416 kts 290°
2026-05-06 13:58 44.60486 27.13952 23885 ft 417 kts 290°
2026-05-06 13:58 44.61349 27.10092 24522 ft 411 kts 290°
2026-05-06 13:59 44.62191 27.06324 25046 ft 408 kts 291°
2026-05-06 13:59 44.63057 27.02538 25380 ft 408 kts 292°
2026-05-06 13:59 44.64084 26.98876 25663 ft 408 kts 297°
2026-05-06 13:59 44.65265 26.95493 25948 ft 408 kts 301°
2026-05-06 14:00 44.66683 26.92095 26248 ft 408 kts 304°
2026-05-06 14:00 44.68184 26.88703 26526 ft 409 kts 305°
2026-05-06 14:00 44.69677 26.85354 26803 ft 411 kts 305°
2026-05-06 14:00 44.71192 26.81948 27076 ft 412 kts 305°
2026-05-06 14:01 44.72706 26.78534 27348 ft 413 kts 305°
2026-05-06 14:01 44.74218 26.75117 27613 ft 415 kts 305°
2026-05-06 14:01 44.75739 26.71671 27860 ft 416 kts 304°
2026-05-06 14:01 44.77263 26.68211 28125 ft 417 kts 304°
2026-05-06 14:02 44.78767 26.64789 28386 ft 418 kts 304°
2026-05-06 14:02 44.80292 26.61318 28627 ft 420 kts 304°
2026-05-06 14:02 44.81825 26.57821 28866 ft 421 kts 304°
2026-05-06 14:02 44.83342 26.54362 29098 ft 423 kts 304°
2026-05-06 14:03 44.84873 26.50860 29334 ft 424 kts 304°
2026-05-06 14:03 44.86381 26.47408 29582 ft 424 kts 304°
2026-05-06 14:03 44.87912 26.43899 29813 ft 425 kts 304°
2026-05-06 14:03 44.89442 26.40387 30087 ft 425 kts 304°
2026-05-06 14:04 44.90974 26.36867 30411 ft 424 kts 304°
2026-05-06 14:04 44.92463 26.33441 30727 ft 422 kts 303°
2026-05-06 14:04 44.93985 26.29930 31042 ft 421 kts 303°
2026-05-06 14:04 44.95463 26.26520 31346 ft 420 kts 303°
2026-05-06 14:05 44.96958 26.23072 31637 ft 419 kts 303°
2026-05-06 14:05 44.98435 26.19658 31910 ft 418 kts 303°
2026-05-06 14:05 44.99902 26.16260 32197 ft 417 kts 303°
2026-05-06 14:05 45.01297 26.13027 32489 ft 416 kts 303°
2026-05-06 14:06 45.02770 26.09611 32800 ft 414 kts 303°
2026-05-06 14:06 45.04236 26.06205 33111 ft 412 kts 303°
2026-05-06 14:06 45.05715 26.02764 33410 ft 410 kts 303°
2026-05-06 14:06 45.07172 25.99372 33728 ft 408 kts 303°
2026-05-06 14:07 45.08617 25.96006 34012 ft 406 kts 303°
2026-05-06 14:07 45.10074 25.92608 34262 ft 406 kts 303°
2026-05-06 14:07 45.11503 25.89269 34473 ft 406 kts 303°
2026-05-06 14:07 45.12949 25.85885 34665 ft 406 kts 303°
2026-05-06 14:08 45.14395 25.82496 34829 ft 407 kts 303°
2026-05-06 14:08 45.15821 25.79153 34985 ft 408 kts 303°
2026-05-06 14:08 45.17264 25.75765 35135 ft 408 kts 303°
2026-05-06 14:08 45.18704 25.72379 35303 ft 409 kts 303°
2026-05-06 14:09 45.20134 25.69013 35454 ft 409 kts 303°
2026-05-06 14:09 45.21574 25.65619 35589 ft 410 kts 303°
2026-05-06 14:09 45.23028 25.62188 35714 ft 411 kts 303°
2026-05-06 14:09 45.24472 25.58777 35853 ft 412 kts 303°
2026-05-06 14:10 45.25938 25.55308 35984 ft 413 kts 303°
2026-05-06 14:10 45.27374 25.51909 36023 ft 413 kts 303°
2026-05-06 14:10 45.30179 25.44910 36034 ft 414 kts 301°
2026-05-06 14:11 45.32887 25.37808 36032 ft 414 kts 301°
2026-05-06 14:11 45.35529 25.30846 36037 ft 414 kts 300°
2026-05-06 14:12 45.38197 25.23811 36039 ft 413 kts 300°
2026-05-06 14:12 45.40880 25.16715 36038 ft 414 kts 300°